Weather History for McAllen, TX

Change the Weather History Date:

Sunday, August 5, 2012

  Actual Average Record
Temperature  
Mean Temperature 92 °F 88 °F  
Max Temperature 103 °F 99 °F 105 °F (2009)
Min Temperature 81 °F 77 °F 70 °F (1974)
Degree Days  
Heating Degree Days 0 0  
Month to date heating degree days 0 0  
Since 1 June heating degree days 0 0  
Since 1 July heating degree days 0 0  
Cooling Degree Days 27 23  
Month to date cooling degree days 133 114  
Year to date cooling degree days 3131 2671  
Since 1 June cooling degree days 1558 1416  
Growing Degree Days 41 (Base 50)    
Moisture  
Dew Point 72 °F    
Average Humidity 57    
Maximum Humidity 85    
Minimum Humidity 29    
Precipitation  
Precipitation 0.00 in 0.05 in 0.82 in (2005)
Month to date precipitation 0.00 0.24  
Year to date precipitation 13.05 11.60  
Sea Level Pressure  
Sea Level Pressure 30.00 in    
Wind  
Wind Speed 11 mph (ESE)    
Max Wind Speed 23 mph    
Max Gust Speed 30 mph    
Visibility 10 miles    
Events      
T = Trace of Precipitation, MM = Missing Value Source: NWS Daily Summary

Daily Weather History Graph

Daily Weather History Graph

Search for Another Location

Airport:

Trip Planner

Search our weather history database for the weather conditions in past years. The results will help you decide how hot, cold, wet, or windy it might be!

Date:

Astronomy

Aug. 05, 2012 Rise Set
Actual Time 7:00 AM CDT 8:16 PM CDT
Civil Twilight 6:36 AM CDT 8:41 PM CDT
Nautical Twilight 6:07 AM CDT 9:10 PM CDT
Astronomical Twilight 5:36 AM CDT 9:40 PM CDT
Moon 10:28 PM CDT (8/5) 10:21 AM CDT (8/5)
Length of Visible Light 14h 04m
Length of Day
13h 15m
Waning Gibbous, 86% of the Moon is Illuminated
Aug 5
Waning Gibbous
Aug 9
Last Quarter
Aug 17
New
Aug 24
First Quarter
Aug 31
Full

Hourly Weather History & Observations

Time (CDT) Temp. Heat Index Dew Point Humidity Pressure Visibility Wind Dir Wind Speed Gust Speed Precip Events Conditions
12:53 AM 84.0 °F 91.9 °F 75.0 °F 74% 29.98 in 10.0 mi ESE 10.4 mph - N/A   Clear
1:53 AM 82.9 °F 90.2 °F 75.0 °F 77% 29.99 in 10.0 mi ESE 9.2 mph - N/A   Scattered Clouds
2:53 AM 82.9 °F 90.2 °F 75.0 °F 77% 29.97 in 10.0 mi ESE 8.1 mph - N/A   Clear
3:53 AM 82.0 °F 89.4 °F 75.9 °F 82% 29.97 in 10.0 mi SE 5.8 mph - N/A   Clear
4:24 AM 82.4 °F 89.5 °F 75.2 °F 79% 29.98 in 10.0 mi ESE 5.8 mph - N/A   Mostly Cloudy
4:53 AM 82.0 °F 89.4 °F 75.9 °F 82% 29.97 in 10.0 mi ESE 6.9 mph - N/A   Mostly Cloudy
5:39 AM 82.4 °F 89.5 °F 75.2 °F 79% 29.98 in 10.0 mi ESE 8.1 mph - N/A   Scattered Clouds
5:53 AM 82.0 °F 89.4 °F 75.9 °F 82% 29.98 in 10.0 mi ESE 6.9 mph - N/A   Partly Cloudy
6:12 AM 82.4 °F 89.5 °F 75.2 °F 79% 29.98 in 10.0 mi ESE 6.9 mph - N/A   Mostly Cloudy
6:32 AM 80.6 °F 86.2 °F 75.2 °F 84% 29.98 in 10.0 mi ESE 5.8 mph - N/A   Partly Cloudy
6:53 AM 81.0 °F 87.3 °F 75.9 °F 85% 29.98 in 10.0 mi ESE 4.6 mph - N/A   Partly Cloudy
7:53 AM 82.0 °F 89.4 °F 75.9 °F 82% 30.00 in 10.0 mi ESE 6.9 mph - N/A   Partly Cloudy
8:53 AM 86.0 °F 96.9 °F 77.0 °F 74% 30.02 in 10.0 mi SE 11.5 mph - N/A   Scattered Clouds
9:07 AM 87.8 °F 97.6 °F 75.2 °F 66% 30.02 in 10.0 mi SSE 12.7 mph - N/A   Mostly Cloudy
9:23 AM 87.8 °F 97.6 °F 75.2 °F 66% 30.03 in 10.0 mi SSE 13.8 mph - N/A   Scattered Clouds
9:53 AM 89.1 °F 98.0 °F 73.9 °F 61% 30.03 in 10.0 mi SSE 11.5 mph - N/A   Scattered Clouds
10:53 AM 93.9 °F 99.1 °F 69.1 °F 44% 30.04 in 10.0 mi SE 16.1 mph 24.2 mph N/A   Scattered Clouds
11:53 AM 96.1 °F 101.6 °F 69.1 °F 41% 30.04 in 10.0 mi ESE 11.5 mph 21.9 mph N/A   Scattered Clouds
12:53 PM 97.0 °F 102.2 °F 68.0 °F 39% 30.02 in 10.0 mi ESE 13.8 mph 19.6 mph N/A   Scattered Clouds
1:53 PM 100.0 °F 104.2 °F 66.0 °F 33% 30.00 in 10.0 mi East 13.8 mph 18.4 mph N/A   Clear
2:53 PM 100.0 °F 103.6 °F 64.9 °F 32% 29.98 in 10.0 mi SE 8.1 mph 21.9 mph N/A   Scattered Clouds
3:53 PM 100.4 °F 103.6 °F 64.4 °F 31% 29.97 in 10.0 mi ESE 12.7 mph 21.9 mph N/A   Scattered Clouds
4:53 PM 102.0 °F 105.2 °F 64.0 °F 29% 29.95 in 10.0 mi ESE 16.1 mph 27.6 mph N/A   Partly Cloudy
5:53 PM 99.0 °F 102.9 °F 66.0 °F 34% 29.95 in 10.0 mi East 19.6 mph 28.8 mph N/A   Scattered Clouds
6:53 PM 93.9 °F 97.5 °F 66.9 °F 41% 29.97 in 10.0 mi East 16.1 mph 27.6 mph N/A   Clear
7:53 PM 90.0 °F 95.4 °F 70.0 °F 52% 29.99 in 10.0 mi East 18.4 mph 23.0 mph N/A   Clear
8:53 PM 88.0 °F 94.7 °F 72.0 °F 59% 30.01 in 10.0 mi East 13.8 mph - N/A   Clear
9:53 PM 86.0 °F 93.8 °F 73.9 °F 67% 30.02 in 10.0 mi ESE 11.5 mph - N/A   Clear
10:53 PM 84.9 °F 91.4 °F 73.0 °F 67% 30.04 in 10.0 mi SE 9.2 mph - N/A   Clear
11:53 PM 84.0 °F 89.6 °F 72.0 °F 67% 30.06 in 10.0 mi East 4.6 mph - N/A   Clear